 day,  time,  air_temp(C),  RH(%),  ground_temp10cm(C),  ground_temp20cm(C),  ground_temp40cm(C),  precipitation(mm/h),  Solar_Radiation(MJ/m2h),  lack, 
 03/10/01, 01:00,   4.4,  99,  13.0,  14.9,  16.1,   0.0,  0.00, 
 03/10/01, 02:00,   3.3,  94,  12.8,  14.8,  16.1,   0.0,  0.00, 
 03/10/01, 03:00,   2.8,  95,  12.6,  14.7,  16.1,   0.0,  0.00, 
 03/10/01, 04:00,   3.2,  68,  12.3,  14.6,  16.1,   0.0,  0.00, 
 03/10/01, 05:00,   3.7,  52,  12.1,  14.5,  16.1,   0.0,  0.00, 
 03/10/01, 06:00,   7.8,  68,  11.9,  14.4,  16.0,   0.0,  0.00, 
 03/10/01, 07:00,   7.8,  78,  11.7,  14.3,  16.0,   0.0,  0.17, 
 03/10/01, 08:00,  11.4,  64,  11.7,  14.2,  16.0,   0.0,  0.73, 
 03/10/01, 09:00,  12.5,  64,  11.7,  14.0,  16.0,   0.0,  1.56, 
 03/10/01, 10:00,  12.0,  70,  11.9,  14.0,  16.0,   0.0,  1.74, 
 03/10/01, 11:00,  14.9,  59,  12.5,  13.9,  15.9,   0.0,  2.83, 
 03/10/01, 12:00,  16.6,  64,  13.5,  13.8,  15.9,   0.0,  2.92, 
 03/10/01, 13:00,  16.5,  52,  14.6,  14.0,  16.0,   0.0,  2.62, 
 03/10/01, 14:00,  16.2,  58,  15.2,  13.9,  15.9,   0.0,  1.87, 
 03/10/01, 15:00,  14.1,  73,  15.6,  14.1,  15.8,   0.0,  0.79, 
 03/10/01, 16:00,  12.4,  76,  15.6,  14.3,  15.8,   0.0,  0.26, 
 03/10/01, 17:00,  11.9,  76,  15.6,  14.5,  15.8,   0.0,  0.10, 
 03/10/01, 18:00,  12.0,  42,  15.4,  14.6,  15.7,   0.0,  0.00, 
 03/10/01, 19:00,  11.1,  38,  15.1,  14.7,  15.7,   0.0,  0.00, 
 03/10/01, 20:00,  10.8,  35,  14.8,  14.8,  15.7,   0.0,  0.00, 
 03/10/01, 21:00,  10.4,  39,  14.5,  14.8,  15.7,   0.0,  0.00, 
 03/10/01, 22:00,   9.9,  57,  14.4,  14.9,  15.7,   0.0,  0.00, 
 03/10/01, 23:00,  10.0,  64,  14.2,  14.8,  15.7,   0.0,  0.00, 
 03/10/02, 00:00,   9.5,  73,  14.0,  14.8,  15.7,   0.0,  0.00, 
 03/10/02, 01:00,  10.0,  72,  13.8,  14.8,  15.7,   0.0,  0.00, 
 03/10/02, 02:00,   9.9,  75,  13.7,  14.7,  15.7,   0.0,  0.00, 
 03/10/02, 03:00,  10.0,  77,  13.6,  14.7,  15.7,   0.0,  0.00, 
 03/10/02, 04:00,  10.3,  77,  13.5,  14.6,  15.7,   0.0,  0.00, 
 03/10/02, 05:00,  10.4,  82,  13.5,  14.6,  15.7,   0.0,  0.00, 
 03/10/02, 06:00,   9.9,  89,  13.4,  14.5,  15.6,   0.0,  0.00, 
 03/10/02, 07:00,   9.9,  91,  13.3,  14.5,  15.6,   0.0,  0.00, 
 03/10/02, 08:00,  10.1,  94,  13.3,  14.4,  15.6,   0.0,  0.00, 
 03/10/02, 09:00,  10.1,  99,  13.3,  14.4,  15.6,   0.0,  0.00, 
 03/10/02, 10:00,  10.4,  99,  13.3,  14.4,  15.6,   0.0,  0.06, 
 03/10/02, 11:00,  10.7,  99,  13.2,  14.3,  15.6,   0.0,  0.16, 
 03/10/02, 12:00,  10.7,  99,  13.2,  14.3,  15.6,   0.0,  0.18, 
 03/10/02, 13:00,  10.8,  99,  13.4,  14.3,  15.6,   0.0,  0.22, 
 03/10/02, 14:00,  12.4,  88,  13.5,  14.2,  15.6,   0.0,  1.15, 
 03/10/02, 15:00,  11.6,  83,  13.5,  14.2,  15.6,   0.0,  1.07, 
 03/10/02, 16:00,  11.4,  78,  13.6,  14.2,  15.6,   0.0,  1.21, 
 03/10/02, 17:00,  10.5,  77,  13.7,  14.2,  15.5,   0.0,  0.23, 
 03/10/02, 18:00,   9.4,  82,  13.6,  14.2,  15.5,   0.0,  0.08, 
 03/10/02, 19:00,   9.3,  74,  13.5,  14.2,  15.5,   0.0,  0.00, 
 03/10/02, 20:00,   7.6,  85,  13.4,  14.2,  15.5,   0.0,  0.00, 
 03/10/02, 21:00,   6.2,  90,  13.2,  14.2,  15.5,   0.0,  0.00, 
 03/10/02, 22:00,   5.7,  92,  12.9,  14.2,  15.5,   0.0,  0.00, 
 03/10/02, 23:00,   6.8,  79,  12.7,  14.2,  15.5,   0.0,  0.00, 
 03/10/03, 00:00,   5.3,  89,  12.4,  14.1,  15.5,   0.0,  0.00, 
 03/10/03, 01:00,   6.3,  78,  12.2,  14.0,  15.4,   0.0,  0.00, 
 03/10/03, 02:00,   8.6,  64,  12.1,  14.0,  15.4,   0.0,  0.00, 
 03/10/03, 03:00,   8.3,  69,  11.9,  13.9,  15.4,   0.0,  0.00, 
 03/10/03, 04:00,   8.3,  70,  11.8,  13.8,  15.4,   0.0,  0.00, 
 03/10/03, 05:00,   7.7,  82,  11.8,  13.7,  15.4,   0.0,  0.00, 
 03/10/03, 06:00,   6.7,  90,  11.7,  13.6,  15.4,   0.0,  0.00, 
 03/10/03, 07:00,   6.9,  95,  11.7,  13.6,  15.4,   0.0,  0.04, 
 03/10/03, 08:00,   8.1,  92,  11.7,  13.5,  15.3,   0.0,  0.50, 
 03/10/03, 09:00,   8.7,  89,  11.8,  13.4,  15.3,   0.0,  1.04, 
 03/10/03, 10:00,  10.2,  81,  12.0,  13.4,  15.3,   0.0,  1.69, 
 03/10/03, 11:00,  10.7,  70,  12.4,  13.4,  15.3,   0.0,  1.58, 
 03/10/03, 12:00,  11.2,  61,  13.0,  13.5,  15.3,   0.0,  2.13, 
 03/10/03, 13:00,  11.4,  62,  13.5,  13.4,  15.3,   0.0,  1.95, 
 03/10/03, 14:00,  12.7,  57,  13.9,  13.4,  15.2,   0.0,  2.01, 
 03/10/03, 15:00,  10.8,  57,  14.1,  13.6,  15.3,   0.0,  1.88, 
 03/10/03, 16:00,  10.0,  55,  14.1,  13.7,  15.2,   0.0,  1.38, 
 03/10/03, 17:00,   8.8,  70,  13.9,  13.8,  15.2,   0.0,  0.54, 
 03/10/03, 18:00,   7.1,  83,  13.7,  13.9,  15.1,   0.0,  0.01, 
 03/10/03, 19:00,   6.8,  88,  13.4,  13.9,  15.1,   0.0,  0.00, 
 03/10/03, 20:00,   6.4,  91,  13.2,  13.9,  15.1,   0.0,  0.00, 
 03/10/03, 21:00,   5.7,  93,  13.0,  13.9,  15.1,   0.0,  0.00, 
 03/10/03, 22:00,   5.2,  95,  12.8,  13.9,  15.1,   0.0,  0.00, 
 03/10/03, 23:00,   4.9,  96,  12.5,  13.9,  15.1,   0.0,  0.00, 
 03/10/04, 00:00,   4.3,  98,  12.3,  13.8,  15.1,   0.0,  0.00, 
 03/10/04, 01:00,   4.1,  99,  12.0,  13.7,  15.1,   0.0,  0.00, 
 03/10/04, 02:00,   4.8,  99,  11.9,  13.7,  15.1,   0.0,  0.00, 
 03/10/04, 03:00,   4.1,  99,  11.8,  13.6,  15.1,   0.0,  0.00, 
 03/10/04, 04:00,   4.7,  97,  11.7,  13.5,  15.1,   0.0,  0.00, 
 03/10/04, 05:00,   6.0,  69,  11.6,  13.4,  15.0,   0.0,  0.00, 
 03/10/04, 06:00,   4.6,  79,  11.4,  13.4,  15.0,   0.0,  0.00, 
 03/10/04, 07:00,   6.4,  66,  11.3,  13.3,  15.0,   0.0,  0.13, 
 03/10/04, 08:00,   7.9,  73,  11.3,  13.2,  15.0,   0.0,  0.54, 
 03/10/04, 09:00,   9.3,  64,  11.4,  13.1,  15.0,   0.0,  1.03, 
 03/10/04, 10:00,   9.1,  87,  11.6,  13.1,  15.0,   0.0,  1.43, 
 03/10/04, 11:00,  11.0,  79,  12.0,  13.0,  15.0,   0.0,  2.28, 
 03/10/04, 12:00,  11.4,  69,  12.5,  13.0,  14.9,   0.0,  2.54, 
 03/10/04, 13:00,  14.1,  58,  13.2,  13.0,  14.9,   0.0,  2.96, 
 03/10/04, 14:00,  11.8,  63,  13.9,  13.2,  14.9,   0.0,  1.65, 
 03/10/04, 15:00,  10.8,  72,  14.3,  13.2,  14.9,   0.0,  1.58, 
 03/10/04, 16:00,   9.7,  76,  14.3,  13.4,  14.9,   0.0,  1.08, 
 03/10/04, 17:00,   7.9,  88,  14.3,  13.5,  14.8,   0.0,  0.36, 
 03/10/04, 18:00,   7.1,  91,  14.1,  13.7,  14.8,   0.0,  0.00, 
 03/10/04, 19:00,   6.1,  97,  13.9,  13.7,  14.8,   0.0,  0.00, 
 03/10/04, 20:00,   5.7,  94,  13.6,  13.8,  14.8,   0.0,  0.00, 
 03/10/04, 21:00,   5.7,  91,  13.4,  13.8,  14.8,   0.0,  0.00, 
 03/10/04, 22:00,   5.2,  92,  13.1,  13.8,  14.8,   0.0,  0.00, 
 03/10/04, 23:00,   4.5,  99,  12.9,  13.8,  14.8,   0.0,  0.00, 
 03/10/05, 00:00,   4.1,  99,  12.5,  13.8,  14.8,   0.0,  0.00, 
 03/10/05, 01:00,   3.1,  95,  12.2,  13.7,  14.8,   0.0,  0.00, 
 03/10/05, 02:00,   2.2,  94,  12.0,  13.7,  14.8,   0.0,  0.00, 
 03/10/05, 03:00,   3.0,  87,  11.7,  13.6,  14.8,   0.0,  0.00, 
 03/10/05, 04:00,   4.0,  81,  11.5,  13.5,  14.8,   0.0,  0.00, 
 03/10/05, 05:00,   4.4,  77,  11.3,  13.4,  14.8,   0.0,  0.00, 
 03/10/05, 06:00,   4.6,  76,  11.3,  13.3,  14.8,   0.0,  0.00, 
 03/10/05, 07:00,   4.1,  83,  11.1,  13.2,  14.8,   0.0,  0.12, 
 03/10/05, 08:00,   5.5,  75,  11.0,  13.1,  14.8,   0.0,  1.01, 
 03/10/05, 09:00,   6.9,  78,  11.0,  13.0,  14.7,   0.0,  1.33, 
 03/10/05, 10:00,   8.8,  75,  11.1,  12.9,  14.7,   0.0,  2.30, 
 03/10/05, 11:00,  10.8,  73,  11.6,  12.9,  14.7,   0.0,  2.82, 
 03/10/05, 12:00,  12.3,  63,  12.4,  12.8,  14.7,   0.0,  2.90, 
 03/10/05, 13:00,  12.3,  56,  13.4,  12.8,  14.7,   0.0,  2.88, 
 03/10/05, 14:00,  12.1,  49,  14.2,  12.9,  14.7,   0.0,  2.04, 
 03/10/05, 15:00,  12.9,  45,  14.5,  13.1,  14.7,   0.0,  2.00, 
 03/10/05, 16:00,  11.3,  64,  14.6,  13.3,  14.6,   0.0,  0.65, 
 03/10/05, 17:00,   9.7,  76,  14.6,  13.4,  14.6,   0.0,  0.23, 
 03/10/05, 18:00,   8.4,  85,  14.4,  13.6,  14.6,   0.0,  0.01, 
 03/10/05, 19:00,   6.7,  94,  14.2,  13.7,  14.6,   0.0,  0.00, 
 03/10/05, 20:00,   6.8,  91,  13.9,  13.8,  14.6,   0.0,  0.00, 
 03/10/05, 21:00,   6.4,  95,  13.6,  13.8,  14.6,   0.0,  0.00, 
 03/10/05, 22:00,   6.4,  97,  13.4,  13.8,  14.6,   0.0,  0.00, 
 03/10/05, 23:00,   6.3,  99,  13.2,  13.8,  14.6,   0.0,  0.00, 
 03/10/06, 00:00,   6.1,  99,  13.0,  13.8,  14.6,   0.0,  0.00, 
 03/10/06, 01:00,   6.9,  89,  12.8,  13.7,  14.6,   0.0,  0.00, 
 03/10/06, 02:00,   6.4,  93,  12.5,  13.7,  14.6,   0.0,  0.00, 
 03/10/06, 03:00,   6.2,  93,  12.5,  13.6,  14.6,   0.0,  0.00, 
 03/10/06, 04:00,   7.3,  81,  12.3,  13.6,  14.6,   0.0,  0.00, 
 03/10/06, 05:00,   6.2,  88,  12.1,  13.5,  14.6,   0.0,  0.00, 
 03/10/06, 06:00,   5.8,  92,  12.0,  13.5,  14.6,   0.0,  0.00, 
 03/10/06, 07:00,   6.3,  90,  11.9,  13.4,  14.6,   0.0,  0.01, 
 03/10/06, 08:00,   6.6,  94,  11.8,  13.3,  14.6,   0.0,  0.35, 
 03/10/06, 09:00,   7.8,  92,  11.9,  13.3,  14.6,   0.0,  0.72, 
 03/10/06, 10:00,   8.6,  90,  11.9,  13.2,  14.6,   0.0,  1.06, 
 03/10/06, 11:00,   9.9,  78,  12.2,  13.2,  14.6,   0.0,  1.22, 
 03/10/06, 12:00,  10.1,  81,  12.4,  13.1,  14.5,   0.0,  0.97, 
 03/10/06, 13:00,   9.7,  85,  12.6,  13.1,  14.5,   0.0,  0.88, 
 03/10/06, 14:00,  10.3,  72,  12.8,  13.1,  14.5,   0.0,  1.35, 
 03/10/06, 15:00,  11.0,  71,  13.0,  13.2,  14.5,   0.0,  1.98, 
 03/10/06, 16:00,  10.1,  78,  13.1,  13.2,  14.5,   0.0,  1.30, 
 03/10/06, 17:00,   9.2,  86,  13.1,  13.3,  14.5,   0.0,  0.67, 
 03/10/06, 18:00,   7.2,  92,  13.1,  13.3,  14.5,   0.0,  0.04, 
 03/10/06, 19:00,   6.2,  95,  12.9,  13.3,  14.5,   0.0,  0.00, 
 03/10/06, 20:00,   5.2,  99,  12.6,  13.4,  14.5,   0.0,  0.00, 
 03/10/06, 21:00,   5.5,  99,  12.4,  13.4,  14.5,   0.0,  0.00, 
 03/10/06, 22:00,   5.7,  99,  12.2,  13.3,  14.5,   0.0,  0.00, 
 03/10/06, 23:00,   4.9,  99,  11.9,  13.3,  14.4,   0.0,  0.00, 
 03/10/07, 00:00,   5.3,  99,  11.8,  13.2,  14.4,   0.0,  0.00, 
 03/10/07, 01:00,   5.7,  98,  11.7,  13.2,  14.5,   0.0,  0.00, 
 03/10/07, 02:00,   4.9,  99,  11.5,  13.1,  14.4,   0.0,  0.00, 
 03/10/07, 03:00,   4.1,  98,  11.4,  13.1,  14.4,   0.0,  0.00, 
 03/10/07, 04:00,   4.5,  97,  11.3,  13.0,  14.4,   0.0,  0.00, 
 03/10/07, 05:00,   4.0,  97,  11.1,  12.9,  14.4,   0.0,  0.00, 
 03/10/07, 06:00,   3.8,  96,  11.0,  12.8,  14.4,   0.0,  0.00, 
 03/10/07, 07:00,   5.4,  87,  10.8,  12.8,  14.4,   0.0,  0.19, 
 03/10/07, 08:00,   7.6,  73,  10.8,  12.7,  14.4,   0.0,  0.91, 
 03/10/07, 09:00,   9.1,  70,  10.8,  12.6,  14.4,   0.0,  1.35, 
 03/10/07, 10:00,  10.5,  68,  10.9,  12.5,  14.5,   0.0,  2.05, 
 03/10/07, 11:00,  11.5,  71,  11.3,  12.5,  14.3,   0.0,  2.27, 
 03/10/07, 12:00,  12.1,  63,  12.0,  12.5,  14.3,   0.0,  2.13, 
 03/10/07, 13:00,  13.0,  48,  12.7,  12.5,  14.4,   0.0,  1.94, 
 03/10/07, 14:00,  12.5,  45,  13.1,  12.6,  14.3,   0.0,  1.58, 
 03/10/07, 15:00,  12.1,  55,  13.4,  12.7,  14.4,   0.0,  0.88, 
 03/10/07, 16:00,  11.5,  45,  13.5,  12.8,  14.4,   0.0,  0.81, 
 03/10/07, 17:00,   9.6,  74,  13.5,  12.9,  14.3,   0.0,  0.31, 
 03/10/07, 18:00,   7.2,  89,  13.4,  13.0,  14.2,   0.0,  0.00, 
 03/10/07, 19:00,   7.2,  89,  13.1,  13.1,  14.3,   0.0,  0.00, 
 03/10/07, 20:00,   6.7,  97,  12.9,  13.2,  14.2,   0.0,  0.00, 
 03/10/07, 21:00,   6.8,  97,  12.7,  13.2,  14.2,   0.0,  0.00, 
 03/10/07, 22:00,   5.8,  98,  12.5,  13.2,  14.3,   0.0,  0.00, 
 03/10/07, 23:00,   5.3,  98,  12.2,  13.2,  14.3,   0.0,  0.00, 
 03/10/08, 00:00,   5.1,  98,  12.0,  13.1,  14.2,   0.0,  0.00, 
 03/10/08, 01:00,   4.9,  99,  11.8,  13.1,  14.2,   0.0,  0.00, 
 03/10/08, 02:00,   7.1,  79,  11.6,  13.0,  14.2,   0.0,  0.00, 
 03/10/08, 03:00,   5.2,  96,  11.4,  13.0,  14.3,   0.0,  0.00, 
 03/10/08, 04:00,   7.2,  74,  11.3,  12.9,  14.2,   0.0,  0.00, 
 03/10/08, 05:00,   4.8,  91,  11.1,  12.8,  14.2,   0.0,  0.00, 
 03/10/08, 06:00,   4.8,  85,  11.0,  12.7,  14.2,   0.0,  0.00, 
 03/10/08, 07:00,   5.9,  80,  10.9,  12.7,  14.2,   0.0,  0.13, 
 03/10/08, 08:00,   8.4,  71,  10.8,  12.6,  14.2,   0.0,  0.44, 
 03/10/08, 09:00,  10.3,  75,  10.9,  12.5,  14.2,   0.0,  0.91, 
 03/10/08, 10:00,   9.7,  84,  11.0,  12.5,  14.1,   0.0,  0.84, 
 03/10/08, 11:00,   9.9,  84,  11.3,  12.4,  14.1,   0.0,  1.02, 
 03/10/08, 12:00,  10.3,  86,  11.6,  12.4,  14.1,   0.0,  1.08, 
 03/10/08, 13:00,  12.1,  67,  11.8,  12.4,  14.2,   0.0,  1.43, 
 03/10/08, 14:00,  11.4,  71,  12.2,  12.4,  14.2,   0.0,  1.20, 
 03/10/08, 15:00,  11.3,  74,  12.5,  12.5,  14.1,   0.0,  1.05, 
 03/10/08, 16:00,  11.1,  73,  12.6,  12.5,  14.1,   0.0,  1.31, 
 03/10/08, 17:00,  10.0,  77,  12.6,  12.6,  14.1,   0.0,  0.54, 
 03/10/08, 18:00,   7.1,  90,  12.4,  12.6,  14.1,   0.0,  0.03, 
 03/10/08, 19:00,   6.0,  91,  12.2,  12.7,  14.1,   0.0,  0.00, 
 03/10/08, 20:00,   5.9,  89,  12.0,  12.7,  14.0,   0.0,  0.00, 
 03/10/08, 21:00,   5.7,  86,  11.7,  12.7,  14.0,   0.0,  0.00, 
 03/10/08, 22:00,   5.7,  87,  11.5,  12.7,  14.0,   0.0,  0.00, 
 03/10/08, 23:00,   5.3,  89,  11.3,  12.7,  14.0,   0.0,  0.00, 
 03/10/09, 00:00,   5.2,  90,  11.1,  12.6,  14.0,   0.0,  0.00, 
 03/10/09, 01:00,   5.3,  87,  10.9,  12.5,  14.0,   0.0,  0.00, 
 03/10/09, 02:00,   5.1,  88,  10.7,  12.5,  14.0,   0.0,  0.00, 
 03/10/09, 03:00,   4.8,  89,  10.5,  12.4,  14.0,   0.0,  0.00, 
 03/10/09, 04:00,   4.8,  87,  10.3,  12.3,  14.0,   0.0,  0.00, 
 03/10/09, 05:00,   4.5,  88,  10.2,  12.2,  13.9,   0.0,  0.00, 
 03/10/09, 06:00,   4.4,  91,  10.0,  12.2,  13.9,   0.0,  0.00, 
 03/10/09, 07:00,   6.2,  89,   9.8,  12.1,  13.9,   0.0,  0.21, 
 03/10/09, 08:00,  10.1,  63,   9.8,  12.0,  13.9,   0.0,  1.02, 
 03/10/09, 09:00,  10.6,  72,   9.8,  11.9,  13.9,   0.0,  1.77, 
 03/10/09, 10:00,  12.6,  68,   9.9,  11.8,  14.0,   0.0,  2.34, 
 03/10/09, 11:00,  13.4,  70,  10.5,  11.8,  14.0,   0.0,  2.73, 
 03/10/09, 12:00,  14.4,  56,  11.5,  11.7,  14.0,   0.0,  2.88, 
 03/10/09, 13:00,  15.6,  46,  12.6,  11.8,  13.9,   0.0,  2.81, 
 03/10/09, 14:00,  16.1,  49,  13.6,  11.9,  13.9,   0.0,  2.45, 
 03/10/09, 15:00,  14.9,  46,  13.8,  12.1,  13.9,   0.0,  1.96, 
 03/10/09, 16:00,  13.9,  46,  13.8,  12.3,  13.9,   0.0,  1.24, 
 03/10/09, 17:00,  12.4,  59,  13.6,  12.5,  13.8,   0.0,  0.51, 
 03/10/09, 18:00,   9.3,  77,  13.4,  12.6,  13.7,   0.0,  0.01, 
 03/10/09, 19:00,   9.0,  81,  13.2,  12.7,  13.7,   0.0,  0.00, 
 03/10/09, 20:00,   9.7,  78,  12.8,  12.8,  13.7,   0.0,  0.00, 
 03/10/09, 21:00,   7.4,  90,  12.5,  12.8,  13.7,   0.0,  0.00, 
 03/10/09, 22:00,   6.6,  92,  12.3,  12.9,  13.7,   0.0,  0.00, 
 03/10/09, 23:00,   6.2,  94,  12.0,  12.8,  13.7,   0.0,  0.00, 
 03/10/10, 00:00,   5.8,  95,  11.8,  12.8,  13.7,   0.0,  0.00, 
 03/10/10, 01:00,   5.6,  96,  11.6,  12.8,  13.7,   0.0,  0.00, 
 03/10/10, 02:00,   6.6,  95,  11.4,  12.7,  13.7,   0.0,  0.00, 
 03/10/10, 03:00,   5.3,  99,  11.2,  12.6,  13.7,   0.0,  0.00, 
 03/10/10, 04:00,   6.9,  93,  11.0,  12.6,  13.7,   0.0,  0.00, 
 03/10/10, 05:00,   6.9,  94,  10.8,  12.5,  13.7,   0.0,  0.00, 
 03/10/10, 06:00,   7.0,  88,  10.7,  12.4,  13.7,   0.0,  0.00, 
 03/10/10, 07:00,   7.8,  91,  10.6,  12.3,  13.7,   0.0,  0.17, 
 03/10/10, 08:00,  11.9,  82,  10.5,  12.3,  13.7,   0.0,  0.97, 
 03/10/10, 09:00,  12.8,  73,  10.6,  12.2,  13.7,   0.0,  1.40, 
 03/10/10, 10:00,  14.2,  68,  10.8,  12.1,  13.8,   0.0,  1.95, 
 03/10/10, 11:00,  15.1,  73,  11.2,  12.1,  13.7,   0.0,  1.89, 
 03/10/10, 12:00,  14.9,  75,  11.9,  12.1,  13.8,   0.0,  1.97, 
 03/10/10, 13:00,  15.3,  67,  12.5,  12.1,  13.8,   0.0,  2.00, 
 03/10/10, 14:00,  17.0,  57,  13.2,  12.2,  13.8,   0.0,  2.17, 
 03/10/10, 15:00,  15.7,  62,  13.6,  12.3,  13.8,   0.0,  1.45, 
 03/10/10, 16:00,  14.7,  63,  13.6,  12.4,  13.7,   0.0,  0.84, 
 03/10/10, 17:00,  12.7,  81,  13.7,  12.6,  13.7,   0.0,  0.27, 
 03/10/10, 18:00,  10.8,  89,  13.6,  12.7,  13.7,   0.0,  0.00, 
 03/10/10, 19:00,  10.4,  87,  13.5,  12.8,  13.7,   0.0,  0.00, 
 03/10/10, 20:00,  10.0,  89,  13.2,  12.9,  13.7,   0.0,  0.00, 
 03/10/10, 21:00,  10.3,  87,  13.0,  13.0,  13.7,   0.0,  0.00, 
 03/10/10, 22:00,  10.0,  85,  12.8,  13.0,  13.7,   0.0,  0.00, 
 03/10/10, 23:00,   9.9,  84,  12.6,  13.0,  13.7,   0.0,  0.00, 
 03/10/11, 00:00,   9.4,  92,  12.4,  13.0,  13.7,   0.0,  0.00, 
 03/10/11, 01:00,   9.0,  92,  12.3,  13.0,  13.7,   0.0,  0.00, 
 03/10/11, 02:00,   8.9,  86,  12.1,  12.9,  13.7,   0.0,  0.00, 
 03/10/11, 03:00,   9.5,  67,  12.0,  12.9,  13.7,   0.0,  0.00, 
 03/10/11, 04:00,   9.0,  64,  11.8,  12.9,  13.7,   0.0,  0.00, 
 03/10/11, 05:00,   9.9,  47,  11.6,  12.8,  13.7,   0.0,  0.00, 
 03/10/11, 06:00,   9.3,  58,  11.4,  12.8,  13.7,   0.0,  0.00, 
 03/10/11, 07:00,  10.5,  53,  11.3,  12.7,  13.7,   0.0,  0.13, 
 03/10/11, 08:00,  12.2,  67,  11.2,  12.6,  13.7,   0.0,  0.65, 
 03/10/11, 09:00,  14.6,  55,  11.3,  12.6,  13.7,   0.0,  1.22, 
 03/10/11, 10:00,  16.0,  64,  11.5,  12.5,  13.7,   0.0,  1.64, 
 03/10/11, 11:00,  16.7,  59,  12.0,  12.5,  13.7,   0.0,  1.47, 
 03/10/11, 12:00,  18.6,  28,  12.5,  12.5,  13.8,   0.0,  1.83, 
 03/10/11, 13:00,  17.7,  61,  13.2,  12.5,  13.7,   0.0,  1.54, 
 03/10/11, 14:00,  16.4,  68,  13.6,  12.6,  13.8,   0.0,  0.88, 
 03/10/11, 15:00,  15.6,  77,  13.8,  12.7,  13.8,   0.0,  0.50, 
 03/10/11, 16:00,  14.2,  75,  13.9,  12.8,  13.8,   0.0,  0.31, 
 03/10/11, 17:00,  13.1,  67,  13.9,  12.9,  13.7,   0.0,  0.13, 
 03/10/11, 18:00,  12.3,  61,  13.8,  13.1,  13.7,   0.0,  0.00, 
 03/10/11, 19:00,  11.9,  69,  13.7,  13.1,  13.7,   0.0,  0.00, 
 03/10/11, 20:00,  12.4,  55,  13.5,  13.2,  13.7,   0.0,  0.00, 
 03/10/11, 21:00,  13.6,  53,  13.5,  13.2,  13.7,   0.0,  0.00, 
 03/10/11, 22:00,  14.0,  52,  13.4,  13.4,  13.7,   0.0,  0.00, 
 03/10/11, 23:00,  13.5,  59,  13.2,  13.3,  13.7,   0.0,  0.00, 
 03/10/12, 00:00,  12.6,  78,  13.2,  13.4,  13.8,   0.0,  0.00, 
 03/10/12, 01:00,  13.7,  63,  13.2,  13.4,  13.8,   0.0,  0.00, 
 03/10/12, 02:00,  14.0,  77,  13.0,  13.3,  13.7,   0.0,  0.00, 
 03/10/12, 03:00,  13.2,  85,  13.0,  13.2,  13.7,   0.0,  0.00, 
 03/10/12, 04:00,  14.3,  88,  13.0,  13.2,  13.7,   0.0,  0.00, 
 03/10/12, 05:00,  14.4,  93,  13.0,  13.2,  13.7,   0.0,  0.00, 
 03/10/12, 06:00,  14.7,  92,  13.0,  13.2,  13.7,   0.0,  0.00, 
 03/10/12, 07:00,  14.6,  94,  13.0,  13.2,  13.7,   0.0,  0.08, 
 03/10/12, 08:00,  15.4,  95,  13.1,  13.2,  13.7,   0.0,  0.25, 
 03/10/12, 09:00,  16.7,  88,  13.2,  13.2,  13.7,   0.0,  1.04, 
 03/10/12, 10:00,  17.7,  88,  13.6,  13.3,  13.8,   0.0,  1.23, 
 03/10/12, 11:00,  17.9,  90,  13.9,  13.3,  13.7,   0.0,  0.89, 
 03/10/12, 12:00,  17.9,  90,  14.2,  13.3,  13.7,   0.0,  0.98, 
 03/10/12, 13:00,  18.4,  93,  14.5,  13.5,  13.8,   0.5,  0.71, 
 03/10/12, 14:00,  17.6,  96,  14.8,  13.5,  13.9,   0.0,  0.62, 
 03/10/12, 15:00,  17.8,  91,  15.0,  13.6,  13.9,   0.0,  0.54, 
 03/10/12, 16:00,  17.9,  92,  15.2,  13.7,  13.9,   0.0,  0.44, 
 03/10/12, 17:00,  17.7,  92,  15.3,  13.8,  13.9,   0.0,  0.22, 
 03/10/12, 18:00,  16.7,  98,  15.3,  13.9,  13.8,   0.0,  0.00, 
 03/10/12, 19:00,  16.3,  99,  15.2,  14.0,  13.9,   0.0,  0.00, 
 03/10/12, 20:00,  16.5,  99,  15.2,  14.1,  13.9,   0.0,  0.00, 
 03/10/12, 21:00,  16.4,  99,  15.2,  14.1,  13.9,   0.0,  0.00, 
 03/10/12, 22:00,  16.3,  99,  15.0,  14.2,  13.9,   0.0,  0.00, 
 03/10/12, 23:00,  16.7,  98,  15.0,  14.2,  13.9,   0.0,  0.00, 
 03/10/13, 00:00,  16.8,  97,  14.9,  14.3,  13.9,   0.0,  0.00, 
 03/10/13, 01:00,  16.7,  97,  14.9,  14.3,  14.0,   0.0,  0.00, 
 03/10/13, 02:00,  16.6,  99,  14.9,  14.3,  14.0,   0.0,  0.00, 
 03/10/13, 03:00,  16.4,  99,  14.9,  14.3,  14.0,   0.0,  0.00, 
 03/10/13, 04:00,  16.1,  99,  14.9,  14.3,  14.0,   0.5,  0.00, 
 03/10/13, 05:00,  16.0,  96,  14.9,  14.3,  14.1,   0.0,  0.00, 
 03/10/13, 06:00,  16.1,  92,  14.8,  14.4,  14.1,   0.0,  0.00, 
 03/10/13, 07:00,  16.2,  89,  14.8,  14.4,  14.1,   0.0,  0.02, 
 03/10/13, 08:00,  15.1,  99,  14.8,  14.4,  14.1,   0.5,  0.12, 
 03/10/13, 09:00,  14.7,  99,  14.8,  14.4,  14.0,   4.0,  0.08, 
 03/10/13, 10:00,  13.6,  99,  14.8,  14.4,  14.2,  17.0,  0.08, 
 03/10/13, 11:00,  12.0,  99,  14.8,  14.4,  14.2,   6.5,  0.27, 
 03/10/13, 12:00,  11.5,  99,  14.7,  14.5,  14.2,   3.0,  0.29, 
 03/10/13, 13:00,  11.3,  99,  14.7,  14.5,  14.2,   1.0,  0.43, 
 03/10/13, 14:00,  10.9,  99,  14.7,  14.5,  14.2,   0.5,  0.58, 
 03/10/13, 15:00,  10.5,  99,  14.7,  14.5,  14.2,   0.0,  0.39, 
 03/10/13, 16:00,  10.4,  99,  14.7,  14.5,  14.2,   0.5,  0.29, 
 03/10/13, 17:00,   9.9,  99,  14.6,  14.5,  14.3,   0.0,  0.19, 
 03/10/13, 18:00,   9.3,  99,  14.6,  14.5,  14.3,   0.0,  0.00, 
 03/10/13, 19:00,   8.9,  99,  14.4,  14.5,  14.3,   0.0,  0.00, 
 03/10/13, 20:00,   8.6,  99,  14.4,  14.5,  14.3,   0.0,  0.00, 
 03/10/13, 21:00,   8.2,  99,  14.1,  14.4,  14.2,   0.0,  0.00, 
 03/10/13, 22:00,   8.1,  99,  14.0,  14.4,  14.3,   0.0,  0.00, 
 03/10/13, 23:00,   7.5,  99,  13.9,  14.4,  14.2,   0.0,  0.00, 
 03/10/14, 00:00,   7.3,  99,  13.7,  14.3,  14.4,   0.0,  0.00, 
 03/10/14, 01:00,   7.0,  99,  13.6,  14.3,  14.3,   0.0,  0.00, 
 03/10/14, 02:00,   6.4,  99,  13.5,  14.2,  14.4,   0.0,  0.00, 
 03/10/14, 03:00,   5.9,  99,  13.3,  14.1,  14.4,   0.0,  0.00, 
 03/10/14, 04:00,   5.8,  99,  13.2,  14.1,  14.4,   0.0,  0.00, 
 03/10/14, 05:00,   5.8,  99,  13.0,  14.0,  14.4,   0.0,  0.00, 
 03/10/14, 06:00,   5.3,  99,  12.9,  14.0,  14.3,   0.0,  0.00, 
 03/10/14, 07:00,   5.9,  99,  12.8,  13.9,  14.4,   0.0,  0.06, 
 03/10/14, 08:00,   5.5,  99,  12.6,  13.8,  14.3,   0.5,  0.16, 
 03/10/14, 09:00,   6.1,  99,  12.6,  13.8,  14.4,   0.0,  0.20, 
 03/10/14, 10:00,   6.9,  99,  12.6,  13.7,  14.4,   0.0,  0.35, 
 03/10/14, 11:00,   7.7,  99,  12.6,  13.6,  14.4,   0.0,  0.51, 
 03/10/14, 12:00,   8.9,  99,  12.6,  13.6,  14.4,   0.5,  0.49, 
 03/10/14, 13:00,   8.5,  99,  12.7,  13.5,  14.4,   0.0,  0.25, 
 03/10/14, 14:00,   7.6,  96,  12.8,  13.5,  14.4,   1.0,  0.18, 
 03/10/14, 15:00,   8.4,  95,  12.7,  13.5,  14.3,   1.5,  0.13, 
 03/10/14, 16:00,   6.8,  99,  12.6,  13.5,  14.3,   4.0,  0.04, 
 03/10/14, 17:00,   6.8,  99,  12.4,  13.4,  14.2,   3.5,  0.00, 
 03/10/14, 18:00,   6.9,  99,  12.2,  13.3,  14.3,   2.0,  0.00, 
 03/10/14, 19:00,   7.6,  99,  12.1,  13.2,  14.3,   3.0,  0.00, 
 03/10/14, 20:00,   7.2,  99,  11.9,  13.1,  14.2,   2.5,  0.00, 
 03/10/14, 21:00,   8.8,  99,  11.7,  13.1,  14.1,   2.0,  0.00, 
 03/10/14, 22:00,   8.6,  99,  11.7,  13.0,  14.1,   1.0,  0.00, 
 03/10/14, 23:00,   8.6,  99,  11.6,  12.9,  14.2,   2.0,  0.00, 
 03/10/15, 00:00,   8.8,  99,  11.6,  12.8,  14.1,   1.5,  0.00, 
 03/10/15, 01:00,   9.1,  99,  11.5,  12.7,  14.0,   1.5,  0.00, 
 03/10/15, 02:00,   9.3,  99,  11.5,  12.7,  14.1,   0.0,  0.00, 
 03/10/15, 03:00,   8.9,  99,  11.5,  12.6,  14.1,   0.5,  0.00, 
 03/10/15, 04:00,   7.0,  99,  11.5,  12.6,  13.9,   1.0,  0.00, 
 03/10/15, 05:00,   6.7,  99,  11.4,  12.5,  13.9,   0.5,  0.00, 
 03/10/15, 06:00,   6.3,  99,  11.4,  12.5,  14.0,   0.0,  0.00, 
 03/10/15, 07:00,   5.7,  99,  11.3,  12.5,  13.9,   0.0,  0.05, 
 03/10/15, 08:00,   6.7,  99,  11.2,  12.4,  13.8,   0.0,  0.50, 
 03/10/15, 09:00,   6.8,  99,  11.2,  12.4,  13.9,   0.5,  0.50, 
 03/10/15, 10:00,   7.0,  93,  11.2,  12.3,  13.9,   0.0,  0.68, 
 03/10/15, 11:00,   8.3,  85,  11.3,  12.3,  13.9,   0.0,  1.03, 
 03/10/15, 12:00,   7.5,  84,  11.5,  12.3,  13.8,   0.0,  0.79, 
 03/10/15, 13:00,   9.2,  70,  11.7,  12.3,  13.8,   0.0,  1.71, 
 03/10/15, 14:00,   8.3,  76,  12.0,  12.3,  13.8,   0.0,  0.98, 
 03/10/15, 15:00,   5.9,  95,  12.2,  12.3,  13.8,   0.0,  0.39, 
 03/10/15, 16:00,   6.3,  90,  12.2,  12.4,  13.8,   0.5,  1.18, 
 03/10/15, 17:00,   5.7,  86,  12.1,  12.4,  13.8,   0.0,  0.46, 
 03/10/15, 18:00,   5.1,  92,  12.0,  12.4,  13.7,   0.0,  0.04, 
 03/10/15, 19:00,   3.0,  99,  11.8,  12.4,  13.7,   0.0,  0.00, 
 03/10/15, 20:00,   3.1,  96,  11.6,  12.5,  13.7,   0.0,  0.00, 
 03/10/15, 21:00,   3.6,  88,  11.3,  12.4,  13.7,   0.5,  0.00, 
 03/10/15, 22:00,   2.3,  96,  11.1,  12.4,  13.7,   0.0,  0.00, 
 03/10/15, 23:00,   3.9,  79,  10.8,  12.3,  13.7,   0.0,  0.00, 
 03/10/16, 00:00,   2.3,  88,  10.6,  12.3,  13.7,   0.0,  0.00, 
 03/10/16, 01:00,   2.7,  86,  10.3,  12.2,  13.7,   0.0,  0.00, 